MIR-SAT 1 (MO-112) (48868 NORAD) Tracking and Keplerian Element Data

This shows tracking and keplerian element data for the satellite.

Feedback or suggestion? Click here.




ElementValue
Catalog48868
NameMIR-SAT 1 (MO-112)
Epoch Orbit4675
Epoch Day107.48962985
Epoch Year2022
RAAN252.1038
Inclination51.6173
Eccentricity0.0014476
Argument of Perigee307.017
Mean Anonmoly52.9522
Mean Motion16.18205806
Decay Rate0.032402
L11 48868U 98067SP 22107.48962985 .03240200 11823-4 18275-2 0 9992
L22 48868 51.6173 252.1038 0014476 307.0170 52.9522 16.18205806 46754



Live tracking and technical data element details for MIR-SAT 1 (MO-112) (NORAD 48868). MIR-SAT 1 (MO-112) can be tracked NOW for your location showing map with azimuth and elevation plus other details from your city location.







IsCatalogInMostPopularTable: catalog: 48868, numindb: 84
Update: records affected: 1



GetName: 48868 MIR-SAT 1 (MO-112)

Hit Count: updated at: Fri, 02 Dec 2022 13:12:58 GMT